�N����,����,�~����,�C��,���x,�C��,����,���ϕ���,�ő�u�ԕ���,�ő厞����,���˗�,�I�_���x,�n�����x,�ő啗���N��,DTYPE
"18/05/05","00:10",0.0,13.3,69.1,1010.2,306.4,1.7,3.1,332.2,0.00,7.8,15.2,"00:05:22",1
"18/05/05","00:20",0.0,13.7,66.1,1010.2,306.2,2.0,3.1,320.9,0.00,7.5,15.1,"00:10:32",1
"18/05/05","00:30",0.0,13.4,65.6,1010.0,310.0,1.6,2.2,331.9,0.00,7.1,15.1,"00:21:36",1
"18/05/05","00:40",0.0,12.8,68.7,1010.2,306.4,1.5,2.4,317.3,0.00,7.2,15.2,"00:37:20",1
"18/05/05","00:50",0.0,12.6,69.6,1010.7,309.5,2.0,4.3,326.7,0.00,7.2,15.2,"00:49:56",1
"18/05/05","01:00",0.0,13.2,66.6,1010.2,314.3,2.1,4.4,311.9,0.00,7.2,15.0,"00:50:52",1
"18/05/05","01:10",0.0,12.9,66.0,1010.2,304.7,1.7,3.7,332.6,0.00,6.7,15.0,"01:00:34",1
"18/05/05","01:20",0.0,12.3,69.0,1010.0,301.1,1.6,2.4,322.5,0.00,6.8,15.0,"01:15:10",1
"18/05/05","01:30",0.0,12.3,71.3,1010.0,309.8,2.0,3.3,333.2,0.00,7.3,15.1,"01:27:12",1
"18/05/05","01:40",0.0,12.7,68.8,1010.0,320.8,2.1,3.2,331.3,0.00,7.2,15.0,"01:30:32",1
"18/05/05","01:50",0.0,12.6,68.1,1010.4,311.2,1.8,3.4,330.4,0.00,6.9,14.7,"01:47:28",1
"18/05/05","02:00",0.0,12.4,68.2,1010.2,304.6,1.8,2.8,326.7,0.00,6.7,14.9,"01:50:36",1
"18/05/05","02:10",0.0,12.0,69.5,1010.2,291.2,1.6,2.2,330.5,0.00,6.6,14.6,"02:04:48",1
"18/05/05","02:20",0.0,11.8,71.6,1010.2,301.8,1.7,3.2,307.5,0.00,6.9,14.7,"02:17:40",1
"18/05/05","02:30",0.0,11.7,71.2,1010.2,314.0,1.6,2.2,326.7,0.00,6.7,14.8,"02:20:40",1
"18/05/05","02:40",0.0,11.6,71.6,1010.2,316.3,1.7,2.2,333.9,0.00,6.7,14.9,"02:31:36",1
"18/05/05","02:50",0.0,11.6,71.1,1010.2,307.3,1.5,1.9,279.3,0.00,6.6,14.8,"02:42:42",1
"18/05/05","03:00",0.0,11.6,71.3,1010.2,311.2,1.6,2.2,328.5,0.00,6.6,14.7,"02:57:24",1
"18/05/05","03:10",0.0,11.3,71.9,1010.4,302.4,1.5,1.9,318.8,0.00,6.5,14.6,"03:04:24",1
"18/05/05","03:20",0.0,11.0,73.5,1010.4,301.4,1.6,2.2,322.2,0.00,6.5,14.6,"03:16:02",1
"18/05/05","03:30",0.0,11.1,75.1,1010.4,308.0,1.5,2.4,265.7,0.00,6.9,14.5,"03:29:14",1
"18/05/05","03:40",0.0,11.4,73.1,1010.4,301.0,1.3,2.2,309.4,0.00,6.8,14.2,"03:39:00",1
"18/05/05","03:50",0.0,11.6,71.9,1010.7,301.2,1.3,1.9,316.1,0.00,6.7,14.3,"03:49:26",1
"18/05/05","04:00",0.0,12.2,69.1,1010.9,296.7,1.8,2.7,308.2,0.00,6.7,14.4,"03:53:48",1
"18/05/05","04:10",0.0,12.4,67.8,1011.2,303.9,1.7,2.8,309.7,0.00,6.7,14.3,"04:01:40",1
"18/05/05","04:20",0.0,12.6,66.0,1010.9,291.7,1.8,2.5,292.2,0.00,6.5,14.1,"04:13:22",1
"18/05/05","04:30",0.0,12.5,65.7,1011.4,293.0,1.6,2.5,267.5,0.00,6.3,14.2,"04:29:20",1
"18/05/05","04:40",0.0,12.7,66.2,1011.6,293.2,1.7,4.0,292.8,0.00,6.6,14.0,"04:39:56",1
"18/05/05","04:50",0.0,13.0,64.5,1011.4,292.7,2.3,4.3,333.5,0.00,6.5,14.2,"04:47:32",1
"18/05/05","05:00",0.0,12.9,63.7,1011.6,290.0,1.6,3.1,317.0,0.00,6.2,14.3,"04:57:50",1
"18/05/05","05:10",0.0,12.7,63.8,1011.6,295.2,1.7,3.2,312.9,0.00,6.1,14.1,"05:07:28",1
"18/05/05","05:20",0.0,12.9,63.9,1011.9,284.1,1.7,3.4,274.5,0.00,6.3,14.1,"05:13:36",1
"18/05/05","05:30",0.0,12.9,64.0,1011.6,295.0,1.7,3.3,319.5,0.00,6.3,13.8,"05:20:46",1
"18/05/05","05:40",0.0,13.0,64.3,1011.6,292.6,1.7,4.3,309.6,0.00,6.5,14.1,"05:37:36",1
"18/05/05","05:50",0.0,13.0,64.2,1011.9,293.6,1.8,3.3,294.7,0.00,6.4,14.1,"05:45:56",1
"18/05/05","06:00",0.0,13.1,64.8,1012.1,288.3,1.2,2.5,269.8,0.00,6.7,14.0,"05:53:36",1
"18/05/05","06:10",0.0,13.4,64.4,1011.6,293.3,1.5,2.7,308.1,0.01,6.9,14.1,"06:02:16",1
"18/05/05","06:20",0.0,13.8,63.8,1011.9,299.7,1.5,2.9,329.7,0.02,7.1,14.0,"06:17:28",1
"18/05/05","06:30",0.0,14.3,62.5,1012.1,300.3,1.6,3.4,330.4,0.03,7.3,14.1,"06:21:44",1
"18/05/05","06:40",0.0,14.8,61.2,1012.8,305.3,1.8,3.2,320.5,0.05,7.4,14.1,"06:36:00",1
"18/05/05","06:50",0.0,14.8,61.4,1012.8,297.8,1.5,4.0,303.5,0.07,7.5,14.2,"06:40:02",1
"18/05/05","07:00",0.0,15.0,62.0,1012.6,289.0,1.6,2.7,334.4,0.09,7.8,14.3,"06:51:52",1
"18/05/05","07:10",0.0,15.3,60.7,1013.0,286.2,2.0,4.8,302.3,0.11,7.8,14.3,"07:00:56",1
"18/05/05","07:20",0.0,15.6,60.4,1012.3,307.2,1.6,4.0,348.6,0.13,8.0,14.2,"07:17:04",1
"18/05/05","07:30",0.0,16.1,59.8,1012.6,313.9,1.5,3.6,341.8,0.16,8.3,14.4,"07:25:12",1
"18/05/05","07:40",0.0,16.4,58.6,1012.6,275.9,1.3,3.2,358.2,0.18,8.3,14.4,"07:32:00",1
"18/05/05","07:50",0.0,16.4,57.4,1012.3,266.4,1.3,3.1,228.0,0.21,8.0,14.4,"07:43:28",1
"18/05/05","08:00",0.0,16.6,56.1,1012.6,236.4,1.5,3.6,225.3,0.24,7.9,14.7,"07:53:36",1
"18/05/05","08:10",0.0,16.9,55.4,1012.8,241.9,1.3,4.8,230.8,0.26,8.0,14.9,"08:01:12",1
"18/05/05","08:20",0.0,17.1,54.0,1012.3,259.8,1.5,3.6,206.7,0.29,7.8,14.8,"08:12:24",1
"18/05/05","08:30",0.0,17.8,55.4,1012.6,263.6,1.2,3.9,234.4,0.31,8.8,15.2,"08:23:36",1
"18/05/05","08:40",0.0,17.9,54.9,1012.1,275.2,1.0,3.9,346.2,0.33,8.8,15.3,"08:34:16",1
"18/05/05","08:50",0.0,17.9,52.0,1012.1,291.3,1.0,2.9,314.9,0.36,8.0,15.3,"08:49:12",1
"18/05/05","09:00",0.0,18.6,52.7,1012.6,331.6,1.1,3.6,328.1,0.38,8.8,15.8,"08:55:12",1
"18/05/05","09:10",0.0,18.6,53.1,1012.1,285.1,1.6,5.1,352.0,0.40,8.9,15.9,"09:04:24",1
"18/05/05","09:20",0.0,18.8,50.8,1012.3,307.1,1.3,4.0,340.5,0.42,8.4,15.9,"09:17:52",1
"18/05/05","09:30",0.0,19.0,50.5,1012.1,270.7,1.8,5.1,329.5,0.44,8.5,16.4,"09:26:16",1
"18/05/05","09:40",0.0,19.1,49.2,1012.1,299.6,1.8,4.5,343.1,0.46,8.2,16.6,"09:32:48",1
"18/05/05","09:50",0.0,19.9,49.0,1012.1,273.7,1.5,3.5,228.0,0.47,8.9,16.6,"09:44:32",1
"18/05/05","10:00",0.0,19.6,46.4,1011.9,311.8,1.6,4.1,208.5,0.49,7.8,17.2,"09:57:12",1
"18/05/05","10:10",0.0,19.9,45.2,1011.9,299.1,1.7,4.5,230.5,0.51,7.7,17.3,"10:08:40",1
"18/05/05","10:20",0.0,20.3,45.9,1011.6,271.7,1.6,3.4,229.4,0.52,8.3,17.6,"10:10:16",1
"18/05/05","10:30",0.0,20.5,45.2,1011.9,278.5,1.8,4.4,230.3,0.54,8.3,17.6,"10:28:32",1
"18/05/05","10:40",0.0,21.0,43.5,1011.6,317.0,1.6,4.3,347.3,0.55,8.2,18.1,"10:38:56",1
"18/05/05","10:50",0.0,21.6,43.3,1011.6,293.1,1.0,2.4,305.5,0.56,8.6,18.3,"10:43:20",1
"18/05/05","11:00",0.0,21.5,42.6,1010.9,334.0,2.2,4.3,337.1,0.57,8.3,18.6,"10:51:28",1
"18/05/05","11:10",0.0,21.5,43.8,1011.2,308.2,1.8,4.2,351.8,0.58,8.7,18.6,"11:02:08",1
"18/05/05","11:20",0.0,21.3,43.0,1011.2,284.2,1.7,5.0,3.0,0.59,8.3,19.2,"11:14:00",1
"18/05/05","11:30",0.0,21.6,40.3,1011.2,322.1,2.1,4.9,329.1,0.59,7.6,19.3,"11:22:40",1
"18/05/05","11:40",0.0,21.9,39.9,1010.9,291.9,2.0,4.0,333.0,0.60,7.7,19.6,"11:30:40",1
"18/05/05","11:50",0.0,22.3,38.4,1010.9,310.1,1.8,4.9,344.2,0.60,7.5,19.6,"11:48:00",1
"18/05/05","12:00",0.0,22.4,44.7,1010.7,256.5,2.1,6.8,228.9,0.61,9.8,20.0,"11:56:24",1
"18/05/05","12:10",0.0,22.4,39.0,1010.4,265.2,2.0,4.8,229.7,0.61,7.8,20.1,"12:02:40",1
"18/05/05","12:20",0.0,22.9,39.3,1010.7,254.4,2.2,5.5,210.3,0.61,8.4,20.5,"12:10:24",1
"18/05/05","12:30",0.0,23.0,38.0,1010.2,328.3,1.5,4.1,344.7,0.61,8.0,20.6,"12:27:52",1
"18/05/05","12:40",0.0,23.4,38.6,1009.7,291.6,2.0,4.8,334.1,0.61,8.6,20.5,"12:36:00",1
"18/05/05","12:50",0.0,23.4,37.0,1010.2,327.0,2.0,3.7,295.1,0.60,7.9,20.7,"12:40:56",1
"18/05/05","13:00",0.0,23.4,36.0,1009.7,261.2,1.8,5.2,231.1,0.60,7.5,20.8,"12:52:56",1
"18/05/05","13:10",0.0,23.6,37.5,1009.7,304.6,2.0,4.9,354.2,0.59,8.3,21.1,"13:02:56",1
"18/05/05","13:20",0.0,23.5,36.3,1009.5,316.8,2.3,6.8,346.5,0.58,7.7,20.9,"13:15:20",1
"18/05/05","13:30",0.0,24.0,36.0,1009.3,265.8,1.6,4.0,293.6,0.58,8.1,21.2,"13:20:56",1
"18/05/05","13:40",0.0,24.3,35.4,1008.8,289.7,1.6,2.9,236.2,0.56,8.1,21.2,"13:34:16",1
"18/05/05","13:50",0.0,23.7,36.4,1008.8,279.3,2.1,4.8,242.2,0.55,8.0,21.3,"13:43:12",1
"18/05/05","14:00",0.0,24.2,38.5,1008.6,216.8,1.2,3.6,326.8,0.54,9.2,21.2,"13:52:08",1
"18/05/05","14:10",0.0,24.2,41.6,1008.6,182.0,1.7,3.9,182.9,0.53,10.4,21.1,"14:08:08",1
"18/05/05","14:20",0.0,24.0,36.8,1008.6,239.3,2.2,4.1,230.9,0.51,8.4,21.1,"14:14:00",1
"18/05/05","14:30",0.0,24.6,39.1,1008.3,293.0,1.2,3.5,342.7,0.49,9.8,21.2,"14:23:04",1
"18/05/05","14:40",0.0,24.5,36.1,1008.3,309.1,1.6,3.9,332.7,0.47,8.5,21.2,"14:34:00",1
"18/05/05","14:50",0.0,24.3,36.8,1008.3,241.8,1.6,5.2,225.2,0.45,8.7,21.4,"14:46:56",1
"18/05/05","15:00",0.0,24.4,38.2,1008.1,206.4,1.3,3.4,220.7,0.43,9.3,21.2,"14:50:40",1
"18/05/05","15:10",0.0,24.0,38.3,1007.6,198.2,2.3,4.8,220.5,0.41,9.0,21.6,"15:09:28",1
"18/05/05","15:20",0.0,24.0,37.1,1008.3,253.0,1.8,4.3,235.1,0.39,8.5,21.4,"15:15:20",1
"18/05/05","15:30",0.0,24.2,38.7,1008.6,255.8,1.7,4.9,219.5,0.37,9.3,21.6,"15:28:16",1
"18/05/05","15:40",0.0,24.3,40.5,1008.3,240.6,1.7,4.1,235.5,0.31,10.1,21.7,"15:30:40",1
"18/05/05","15:50",0.0,24.6,36.4,1008.8,269.5,1.1,3.1,328.2,0.33,8.8,21.7,"15:42:32",1
"18/05/05","16:00",0.0,25.3,39.8,1008.3,261.8,1.5,2.9,244.7,0.31,10.7,21.7,"15:52:32",1
"18/05/05","16:10",0.0,24.6,36.2,1008.3,242.2,1.6,3.5,229.8,0.23,8.7,21.7,"16:08:08",1
"18/05/05","16:20",0.0,24.7,35.9,1008.8,244.5,1.3,3.2,239.4,0.24,8.6,21.7,"16:19:36",1
"18/05/05","16:30",0.0,24.2,36.7,1008.3,224.6,2.3,5.0,225.7,0.22,8.5,21.7,"16:29:52",1
"18/05/05","16:40",0.0,23.6,36.5,1008.8,238.7,2.3,5.0,215.8,0.17,7.9,21.5,"16:36:56",1
"18/05/05","16:50",0.0,22.9,37.6,1008.8,223.8,2.6,6.0,223.5,0.13,7.7,21.3,"16:42:32",1
"18/05/05","17:00",0.0,22.3,38.9,1008.8,215.0,2.6,6.3,237.3,0.07,7.7,21.3,"16:50:24",1
"18/05/05","17:10",0.0,22.1,39.1,1009.0,228.6,2.5,5.7,221.5,0.06,7.6,21.2,"17:03:52",1
"18/05/05","17:20",0.0,22.2,41.6,1009.3,237.5,1.8,4.9,231.1,0.08,8.6,21.1,"17:12:56",1
"18/05/05","17:30",0.0,22.2,39.2,1009.3,266.9,1.5,3.1,247.2,0.06,7.7,20.9,"17:28:40",1
"18/05/05","17:40",0.0,22.0,39.5,1009.3,253.6,2.5,5.6,220.1,0.05,7.6,20.9,"17:38:00",1
"18/05/05","17:50",0.0,21.9,40.0,1009.3,290.1,1.6,3.5,2.1,0.04,7.7,20.6,"17:48:24",1
"18/05/05","18:00",0.0,21.6,41.7,1009.5,301.2,1.6,3.7,334.7,0.02,8.1,20.6,"17:51:28",1
"18/05/05","18:10",0.0,21.4,40.9,1009.3,310.3,2.0,4.1,262.5,0.01,7.6,20.5,"18:05:28",1
"18/05/05","18:20",0.0,21.1,41.0,1009.7,280.8,1.3,3.5,258.7,0.00,7.4,20.0,"18:16:56",1
"18/05/05","18:30",0.0,21.1,39.5,1010.0,289.2,2.6,5.4,296.6,0.00,6.8,20.0,"18:24:40",1
"18/05/05","18:40",0.0,20.9,40.1,1010.2,293.5,1.8,3.9,323.8,0.00,6.9,19.9,"18:30:08",1
"18/05/05","18:50",0.0,20.5,42.1,1010.2,294.3,1.7,3.4,317.3,0.00,7.2,19.8,"18:40:24",1
"18/05/05","19:00",0.0,20.2,42.8,1010.2,305.5,1.7,3.4,307.7,0.00,7.2,19.7,"18:55:28",1
"18/05/05","19:10",0.0,19.9,43.1,1010.4,312.2,1.8,3.6,310.8,0.00,7.0,19.3,"19:09:40",1
"18/05/05","19:20",0.0,19.5,44.9,1010.2,330.3,2.1,4.2,341.3,0.00,7.3,19.4,"19:15:52",1
"18/05/05","19:30",0.0,19.1,46.6,1010.7,319.2,1.8,3.6,335.2,0.00,7.5,19.4,"19:20:40",1
"18/05/05","19:40",0.0,18.8,47.9,1010.9,315.5,1.7,2.9,307.6,0.00,7.6,19.1,"19:31:04",1
"18/05/05","19:50",0.0,18.4,48.4,1011.4,317.4,1.8,3.3,312.6,0.00,7.4,19.0,"19:43:52",1
"18/05/05","20:00",0.0,18.3,48.5,1011.6,323.3,2.0,2.9,324.8,0.00,7.3,18.9,"19:59:36",1
"18/05/05","20:10",0.0,18.1,48.7,1011.9,325.0,2.3,3.6,335.5,0.00,7.2,18.9,"20:05:28",1
"18/05/05","20:20",0.0,17.9,49.6,1011.9,319.9,2.2,3.9,326.1,0.00,7.3,18.7,"20:11:36",1
"18/05/05","20:30",0.0,17.5,51.7,1012.1,319.3,2.0,3.3,330.6,0.00,7.5,18.5,"20:26:48",1
"18/05/05","20:40",0.0,17.1,53.5,1012.3,301.6,1.2,2.1,325.8,0.00,7.6,18.6,"20:32:00",1
"18/05/05","20:50",0.0,16.6,55.8,1012.6,282.7,1.0,1.7,310.2,0.00,7.8,18.5,"20:43:28",1
"18/05/05","21:00",0.0,16.0,58.9,1012.6,298.1,0.8,1.6,320.0,0.00,8.0,18.2,"20:52:32",1
"18/05/05","21:10",0.0,15.8,60.3,1012.3,315.9,1.2,2.5,338.0,0.00,8.2,18.2,"21:07:44",1
"18/05/05","21:20",0.0,15.5,62.6,1012.8,316.4,0.6,1.3,303.6,0.00,8.4,17.9,"21:10:08",1
"18/05/05","21:30",0.0,14.9,66.1,1012.8,284.2,0.7,1.1,283.2,0.00,8.7,18.2,"21:26:08",1
"18/05/05","21:40",0.0,15.0,67.5,1012.8,335.0,1.1,2.4,350.8,0.00,9.1,17.7,"21:39:20",1
"18/05/05","21:50",0.0,14.5,69.0,1013.0,305.5,1.2,2.4,329.6,0.00,8.9,17.9,"21:40:40",1
"18/05/05","22:00",0.0,14.3,70.2,1012.8,308.5,1.1,2.1,335.3,0.00,9.0,17.8,"21:50:16",1
"18/05/05","22:10",0.0,14.3,69.4,1013.3,305.9,0.8,1.7,321.3,0.00,8.8,17.7,"22:02:40",1
"18/05/05","22:20",0.0,14.3,69.0,1013.3,327.0,1.1,2.0,349.8,0.00,8.7,17.7,"22:19:04",1
"18/05/05","22:30",0.0,14.2,69.9,1012.8,316.4,1.2,1.9,331.3,0.00,8.8,17.4,"22:20:24",1
"18/05/05","22:40",0.0,14.2,68.0,1013.0,293.9,1.2,1.8,269.7,0.00,8.4,17.3,"22:33:44",1
"18/05/05","22:50",0.0,14.3,65.5,1013.3,288.5,0.7,1.1,313.0,0.00,8.0,17.2,"22:42:00",1
"18/05/05","23:00",0.0,14.0,65.6,1012.8,314.5,1.2,1.9,326.4,0.00,7.7,17.2,"22:54:08",1
"18/05/05","23:10",0.0,13.4,69.8,1013.0,320.4,1.3,2.4,330.0,0.00,8.0,17.0,"23:04:00",1
"18/05/05","23:20",0.0,13.1,72.3,1013.0,268.9,0.7,1.4,301.0,0.00,8.3,17.0,"23:19:22",1
"18/05/05","23:30",0.0,13.1,71.6,1013.3,322.9,0.8,2.1,333.5,0.00,8.1,17.0,"23:29:02",1
"18/05/05","23:40",0.0,12.8,73.3,1013.0,325.8,1.5,2.1,317.3,0.00,8.2,16.9,"23:34:34",1
"18/05/05","23:50",0.0,12.2,77.7,1013.3,284.7,1.2,2.1,324.4,0.00,8.5,16.9,"23:40:24",1
"18/05/05","24:00",0.0,12.2,77.5,1013.3,330.9,1.8,2.1,331.2,0.00,8.4,16.9,"23:50:30",1
